Weather History for CYYJ - December, 2011

Change the Weather History Date:

Saturday, December 3, 2011

  Actual Average Record
Temperature  
Mean Temperature 36 °F -  
Max Temperature 44 °F 44 °F 59 °F (2007)
Min Temperature 29 °F 33 °F 26 °F (2006)
Degree Days  
Heating Degree Days 28    
Moisture  
Dew Point 34 °F    
Average Humidity 86    
Maximum Humidity 100    
Minimum Humidity 64    
Precipitation  
Precipitation 0.00 in 0.20 in - ()
Sea Level Pressure  
Sea Level Pressure 30.52 in    
Wind  
Wind Speed 4 mph ()    
Max Wind Speed 8 mph    
Max Gust Speed -    
Visibility 19.9 miles    
Events      
Averages and records for this station are not official NWS values.
T = Trace of Precipitation, MM = Missing Value Source: Averaged Metar Reports

Daily Weather History Graph

Daily Weather History Graph

Search for Another Location

Airport or City:

Trip Planner

Search our weather history database for the weather conditions in past years. The results will help you decide how hot, cold, wet, or windy it might be!

Date:

Astronomy

Dec. 03, 2011 Rise Set
Actual Time 7:47 AM PST 4:19 PM PST
Civil Twilight 7:11 AM PST 4:55 PM PST
Nautical Twilight 6:31 AM PST 5:35 PM PST
Astronomical Twilight 5:53 AM PST 6:13 PM PST
Moon 12:51 PM PST (12/3) 12:53 AM PST (12/3)
Length of Visible Light 9h 44m
Length of Day
8h 32m
Waxing Gibbous, 63% of the Moon is Illuminated
Dec 3
Waxing Gibbous
Dec 10
Full
Dec 17
Last Quarter
Dec 24
New
Dec 31
First Quarter

Hourly Weather History & Observations

Time (PST) Temp. Windchill Dew Point Humidity Pressure Visibility Wind Dir Wind Speed Gust Speed Precip Events Conditions
12:00 AM 32.0 °F 27.5 °F 30.2 °F 93% 30.54 in 20.0 mi WSW 4.6 mph - N/A   Partly Cloudy
1:00 AM 30.2 °F 24.3 °F 28.4 °F 93% 30.54 in 20.0 mi SW 5.8 mph - N/A   Clear
2:00 AM 30.2 °F 23.4 °F 30.2 °F 100% 30.54 in 20.0 mi WSW 6.9 mph - N/A   Partly Cloudy
3:00 AM 33.8 °F 28.6 °F 30.2 °F 87% 30.54 in 20.0 mi WSW 5.8 mph - N/A   Mostly Cloudy
4:00 AM 33 °F - 32 °F 92% 30.53 in 19 mi West 5.8 mph - -   Overcast
4:00 AM 33.8 °F 28.6 °F 32.0 °F 93% 30.53 in 20.0 mi West 5.8 mph - N/A   Overcast
5:00 AM 33.8 °F 27.7 °F 32.0 °F 93% 30.52 in 20.0 mi West 6.9 mph - N/A   Mostly Cloudy
6:00 AM 35.6 °F 29.2 °F 32.0 °F 87% 30.53 in 20.0 mi West 8.1 mph - N/A   Mostly Cloudy
7:00 AM 33.8 °F 29.6 °F 32.0 °F 93% 30.52 in 20.0 mi West 4.6 mph - N/A   Mostly Cloudy
8:00 AM 32.0 °F 24.8 °F 30.2 °F 93% 30.52 in 20.0 mi SW 8.1 mph - N/A   Mostly Cloudy
9:00 AM 33.8 °F 28.6 °F 32.0 °F 93% 30.51 in 20.0 mi SW 5.8 mph - N/A   Mostly Cloudy
10:00 AM 37 °F - 33 °F 81% 30.53 in 19 mi WNW 8.1 mph - -   Scattered Clouds
10:00 AM 37.4 °F 31.4 °F 33.8 °F 87% 30.53 in 20.0 mi WNW 8.1 mph - N/A   Mostly Cloudy
11:00 AM 39.2 °F - 33.8 °F 81% 30.53 in 20.0 mi West 2.3 mph - N/A   Mostly Cloudy
12:00 PM 41.0 °F 39.0 °F 35.6 °F 81% 30.51 in 30.0 mi WNW 3.5 mph - N/A   Scattered Clouds
1:00 PM 41.0 °F - 35.6 °F 81% 30.51 in 30.0 mi West 2.3 mph - N/A   Mostly Cloudy
2:00 PM 44.6 °F 42.2 °F 35.6 °F 71% 30.49 in 30.0 mi East 4.6 mph - N/A   Mostly Cloudy
3:00 PM 44.6 °F 43.1 °F 35.6 °F 71% 30.49 in 30.0 mi East 3.5 mph - N/A   Mostly Cloudy
4:00 PM 44 °F - 36 °F 64% 30.48 in 28 mi East 3.5 mph - -   Mostly Cloudy
4:00 PM 44.6 °F 43.1 °F 35.6 °F 71% 30.48 in 30.0 mi East 3.5 mph - N/A   Mostly Cloudy
5:00 PM 42.8 °F 38.6 °F 37.4 °F 81% 30.49 in 30.0 mi NE 6.9 mph - N/A   Mostly Cloudy
6:00 PM 42.8 °F 41.1 °F 39.2 °F 87% 30.49 in 30.0 mi NNE 3.5 mph - N/A   Mostly Cloudy
7:00 PM 41.0 °F - 37.4 °F 87% 30.51 in 20.0 mi West 2.3 mph - N/A   Mostly Cloudy
7:43 PM 41.0 °F - - N/A% - 20.0 mi SW 2.3 mph - N/A   Mostly Cloudy
8:00 PM 41.0 °F 39.0 °F 37.4 °F 87% 30.51 in 20.0 mi SSW 3.5 mph - N/A   Mostly Cloudy
9:00 PM 41.0 °F 38.0 °F 37.4 °F 87% 30.52 in 20.0 mi West 4.6 mph - N/A   Overcast
10:00 PM 41 °F - 38 °F 85% 30.53 in 19 mi Calm Calm - -   Overcast
10:00 PM 41.0 °F - 37.4 °F 87% 30.53 in 20.0 mi Calm Calm - N/A   Overcast
10:11 PM 41.0 °F - - N/A% - 20.0 mi Calm Calm - N/A   Light Drizzle
10:31 PM 41.0 °F 39.0 °F - N/A% - 20.0 mi ENE 3.5 mph - N/A   Light Drizzle
11:00 PM 41.0 °F 39.0 °F 39.2 °F 93% 30.55 in 20.0 mi NW 3.5 mph - N/A   Light Drizzle